[[{"header":{"parameterUnit":"m.s-1","parameterCategory":1,"la1":30.2991,"la2":30.254,"lo1":-89.0895,"lo2":-89.0444,"dy":0.0017,"dx":0.0017,"nx":28,"ny":28,"refTime":"2024-12-11T03:00:00:Z","depth":0,"parameterNumber":2,"parameterNumberName":"U-component_of_WINDS"},"data":[0,0,0,0,0,0,0,0,0,0,0,0,0,0,0,0,0,0,0,0,0,0,0,0,0,0,0,0,0,0,0,0,0,0,0,0,0,0,0,0,0,0,0,0,0,0,0,0,0,0,0,0,0,0,0,0,0,0,-4.683,-4.683,0,-4.6816,-4.6816,-4.6816,-4.6634,-4.6629,-4.6625,-4.662,-4.6607,-4.6611,-4.6615,0,0,0,0,0,0,0,0,0,0,0,0,0,-4.6698,-4.6701,-4.683,-4.683,-4.683,-4.6816,-4.6816,-4.6816,-4.6635,-4.6629,-4.6623,-4.6618,-4.6606,-4.6611,-4.6615,0,0,0,0,0,0,0,0,0,0,0,0,0,-4.6727,-4.6703,-4.683,-4.6737,-4.6729,-4.6816,-4.6816,-4.6816,-4.6636,-4.6629,-4.6622,-4.6615,-4.6604,-4.661,-4.6616,-4.6791,0,0,-4.6634,-4.6637,0,0,0,0,0,0,0,0,-4.6726,-4.6732,-4.6751,-4.6744,-4.6735,-4.672,-4.6765,-4.6808,-4.6637,-4.6671,-4.662,-4.6612,-4.665,-4.6652,-4.6665,-4.6791,-4.679,-4.6635,-4.6638,-4.6641,-4.6643,0,0,0,0,0,0,0,-4.6724,-4.6732,-4.6824,-4.6752,-4.6742,-4.6696,-4.6693,-4.6772,-4.67,-4.6668,-4.6654,-4.6655,-4.6644,-4.6659,-4.6663,-4.679,-4.6635,-4.664,-4.6643,-4.6646,-4.7057,-4.7064,0,0,0,0,0,0,-4.6735,-4.6731,-4.6825,-4.6824,-4.6713,-4.6704,-4.67,-4.6731,-4.6698,-4.6687,-4.6661,-4.6647,-4.6653,-4.6656,-4.6662,-4.6863,-4.6641,-4.6646,-4.665,-4.705,-4.7059,-4.7067,0,0,0,0,0,0,-4.6733,-4.6745,-4.6825,-4.6774,-4.6781,-4.6714,-4.675,-4.6735,-4.6749,-4.6693,-4.668,-4.669,-4.6647,-4.6654,-4.676,-4.686,-4.6649,-4.6654,-4.7041,-4.7053,-4.7063,-4.7269,0,0,0,0,0,0,-4.673,-4.6745,-4.6811,-4.6777,-4.6784,-4.6924,-4.6757,-4.674,-4.676,-4.6741,-4.6717,-4.6706,-4.6642,-4.6752,-4.6766,-4.6865,-4.6659,-4.7032,-4.7046,-4.706,-4.7253,-4.7286,-4.7314,0,0,0,0,0,-4.6726,-4.687,-4.6816,-4.6828,-4.6865,-4.6931,-4.6935,-4.6858,-4.6769,-4.6834,-4.6798,-4.6707,-4.6848,-4.6765,-4.6779,-4.6881,-4.7025,-4.7042,-4.7058,-4.7239,-4.7279,-4.7313,0,0,0,0,0,0,-4.6918,-4.6864,-4.6803,-4.6941,-4.6942,-4.69,-4.698,-4.6904,-4.693,-4.6911,-4.6816,-4.6812,-4.6933,-4.6917,-4.6826,-4.7048,-4.692,-4.6941,-4.7053,-4.7091,-4.712,-4.7121,-4.6664,0,0,0,0,0,-4.6977,-4.7034,-4.6984,-4.711,-4.7114,-4.7048,-4.7073,-4.7014,-4.7011,-4.7011,-4.6982,-4.6983,-4.7027,-4.7058,-4.7096,-4.725,-4.7241,-4.7327,-4.7358,-4.7383,-4.7401,-4.748,-4.7517,-4.7121,-4.7121,-4.7121,0,0,-4.7099,-4.7076,-4.7118,-4.7149,-4.7142,-4.7203,-4.7049,-4.7121,-4.7165,-4.7022,-4.7119,-4.71,-4.7094,-4.7225,-4.7281,-4.7216,-4.7509,-4.7404,-4.7425,-4.7429,-4.7501,-4.7538,-4.7572,-4.7133,-4.7131,-4.7129,0,0,-4.735,-4.734,-4.7443,-4.744,-4.7432,-4.7387,-4.7413,-4.7382,-4.7363,-4.746,-4.7353,-4.7405,-4.7484,-4.7483,-4.7494,-4.7746,-4.7662,-4.7762,-4.792,-4.7998,-4.8029,-4.8056,-4.8144,-4.8177,-4.778,-4.7781,-4.7781,0,-4.7502,-4.759,-4.7506,-4.7584,-4.76,-4.7474,-4.7577,-4.7578,-4.7584,-4.7598,-4.7525,-4.762,-4.7608,-4.7736,-4.7797,-4.7811,-4.7836,-4.7763,-4.8031,-4.8058,-4.8082,-4.8165,-4.8198,-4.7793,-4.7791,-4.779,-4.7789,0,-4.7776,-4.7839,-4.7923,-4.793,-4.7956,-4.8047,-4.7977,-4.8013,-4.7953,-4.7915,-4.8015,-4.7996,-4.8027,-4.8054,-4.7996,-4.8174,-4.8133,-4.8048,-4.7917,-4.8133,-4.8209,-4.824,-4.781,-4.7805,-4.7802,-4.7799,0,0,-4.8148,-4.8108,-4.814,-4.8141,-4.8124,-4.817,-4.8255,-4.8285,-4.8317,-4.8326,-4.8394,-4.8463,-4.8383,-4.8396,-4.8336,-4.8406,-4.8604,-4.831,-4.8309,-4.8364,-4.8798,-4.8861,-4.8899,-4.855,-4.8555,-4.856,-4.8798,0,-4.8389,-4.853,-4.8457,-4.8609,-4.8664,-4.8545,-4.8619,-4.8616,-4.8584,-4.8627,-4.8591,-4.8641,-4.8533,-4.8539,-4.8603,-4.8567,-4.869,-4.8549,-4.8611,-4.8614,-4.8614,-4.8939,-4.9006,-4.9231,-4.8827,-4.8832,-4.8836,0,-4.8688,-4.8708,-4.8865,-4.8836,-4.8857,-4.8924,-4.8945,-4.8988,-4.8982,-4.8954,-4.8968,-4.8892,-4.8973,-4.8846,-4.8956,-4.8862,-4.8883,-4.887,-4.8877,-4.8878,-4.8736,-4.8947,-4.9301,-4.9334,-4.8882,-4.8879,-4.8875,0,-4.8941,-4.9008,-4.9109,-4.9114,-4.9084,-4.9134,-4.9123,-4.9111,-4.9133,-4.9152,-4.9165,-4.9194,-4.9209,-4.9233,-4.9168,-4.9081,-4.9286,-4.9154,-4.9264,-4.9266,-4.931,-4.9308,-4.967,-4.9329,-4.9328,-4.9327,-4.9327,0,-4.9216,-4.9316,-4.9222,-4.9284,-4.9393,-4.9308,-4.9418,-4.9395,-4.9385,-4.9441,-4.9341,-4.9395,-4.9306,-4.9352,-4.9301,-4.9399,-4.9407,-4.9386,-4.9371,-4.9393,-4.9396,-4.9404,-4.9386,-4.9336,-4.9334,-4.9333,-4.9331,0,-4.9515,-4.9456,-4.9559,-4.9522,-4.9514,-4.9596,-4.9563,-4.962,-4.9581,-4.9653,-4.9665,-4.9604,-4.9653,-4.959,-4.9633,-4.9599,-4.9732,-4.9694,-4.9733,-4.9721,-4.9834,-4.9824,-5.0213,-5.0259,-4.9891,-4.9894,-4.9897,0,-4.9693,-4.9767,-4.9738,-4.9767,-4.9763,-4.9812,-4.9834,-4.9755,-4.9782,-4.9781,-4.9838,-4.9878,-4.9905,-4.9988,-4.9948,-4.9981,-4.9942,-5.0076,-4.9946,-4.9966,-4.9941,-4.9936,-4.9943,-5.0102,-5.0106,-5.011,-5.0113,0,-5.0015,-4.9982,-5.0017,-5.0043,-5.0072,-5.0089,-5.0098,-5.0128,-5.0045,-5.0081,-5.0128,-5.015,-5.0194,-5.0234,-5.0256,-5.0245,-5.0166,-5.0155,-5.0181,-5.0204,-5.0222,-5.0212,-4.9803,-5.0145,-5.0142,-5.014,-5.0138,-5.0137,-5.0257,-5.0316,-5.0305,-5.0347,-5.0346,-5.0356,-5.0407,-5.0374,-5.0413,-5.0441,-5.0393,-5.0453,-5.0445,-5.0466,-5.0464,-5.0511,-5.0452,-5.0492,-5.0501,-5.0511,-5.0528,-5.0218,-5.0515,-5.0514,-5.0513,-5.0512,-5.0511,0,-5.0571,-5.0558,-5.0598,-5.0613,-5.0647,-5.057,-5.0576,-5.0609,-5.0663,-5.0662,-5.0691,-5.0747,-5.0786,-5.075,-5.0781,-5.0825,-5.079,-5.0836,-5.0831,-5.0829,-5.0579,-5.0551,-5.0864,-5.0864,-5.0864,-5.0864,-5.0864,-5.0864,-5.0738,-5.0834,-5.08,-5.0894,-5.088,-5.0938,-5.0948,-5.0957,-5.0956,-5.1022,-5.1054,-5.103,-5.1015,-5.1045,-5.1077,-5.1065,-5.1081,-5.114,-5.1116,-5.0882,-5.0847,-5.0814,-5.0787,-5.1145,-5.1145,-5.1361,-5.1363,-5.1365]},{"header":{"parameterUnit":"m.s-1","parameterCategory":1,"la1":30.2991,"la2":30.254,"lo1":-89.0895,"lo2":-89.0444,"dy":0.0017,"dx":0.0017,"nx":28,"ny":28,"refTime":"2024-12-11T03:00:00:Z","depth":0,"parameterNumber":3,"parameterNumberName":"V-component_of_WINDS"},"data":[0,0,0,0,0,0,0,0,0,0,0,0,0,0,0,0,0,0,0,0,0,0,0,0,0,0,0,0,0,0,0,0,0,0,0,0,0,0,0,0,0,0,0,0,0,0,0,0,0,0,0,0,0,0,0,0,0,0,-1.2925,-1.2926,0,-1.3005,-1.3006,-1.3007,-1.304,-1.304,-1.304,-1.3039,-1.312,-1.3122,-1.3125,0,0,0,0,0,0,0,0,0,0,0,0,0,-1.2798,-1.2801,-1.2925,-1.2926,-1.2927,-1.3005,-1.3006,-1.3007,-1.304,-1.304,-1.304,-1.3039,-1.3119,-1.3122,-1.3125,0,0,0,0,0,0,0,0,0,0,0,0,0,-1.2863,-1.2801,-1.2925,-1.2953,-1.2956,-1.3004,-1.3006,-1.3007,-1.304,-1.304,-1.3039,-1.3039,-1.3119,-1.3122,-1.3125,-1.3151,0,0,-1.3136,-1.3137,0,0,0,0,0,0,0,0,-1.286,-1.2868,-1.2948,-1.2951,-1.2955,-1.3012,-1.2991,-1.3055,-1.304,-1.3008,-1.3039,-1.3039,-1.3084,-1.3091,-1.3106,-1.3155,-1.3159,-1.3136,-1.3138,-1.314,-1.3141,0,0,0,0,0,0,0,-1.2855,-1.2865,-1.2956,-1.2949,-1.2953,-1.2961,-1.2969,-1.3003,-1.3047,-1.3011,-1.3013,-1.3023,-1.3086,-1.3103,-1.3108,-1.316,-1.3136,-1.3139,-1.3141,-1.3143,-1.3232,-1.3232,0,0,0,0,0,0,-1.2846,-1.2861,-1.2954,-1.2959,-1.2906,-1.2963,-1.2973,-1.2994,-1.3046,-1.3054,-1.3023,-1.3024,-1.3097,-1.3104,-1.3111,-1.3144,-1.314,-1.3143,-1.3145,-1.3232,-1.3232,-1.3232,0,0,0,0,0,0,-1.2843,-1.2854,-1.2951,-1.2911,-1.2923,-1.2965,-1.2989,-1.2996,-1.3012,-1.3055,-1.3063,-1.3032,-1.3097,-1.3106,-1.3141,-1.3147,-1.3144,-1.3148,-1.3231,-1.3232,-1.3232,-1.3211,0,0,0,0,0,0,-1.284,-1.2853,-1.2864,-1.2911,-1.2925,-1.298,-1.2989,-1.2997,-1.3018,-1.302,-1.3066,-1.3073,-1.3098,-1.3135,-1.3144,-1.3152,-1.315,-1.3231,-1.3232,-1.3232,-1.3211,-1.321,-1.321,0,0,0,0,0,-1.2835,-1.2855,-1.2865,-1.2876,-1.294,-1.298,-1.2988,-1.3017,-1.3019,-1.303,-1.3057,-1.3072,-1.3145,-1.3139,-1.3149,-1.3158,-1.3231,-1.3231,-1.3232,-1.3211,-1.3211,-1.321,0,0,0,0,0,0,-1.2809,-1.2862,-1.2873,-1.2909,-1.2939,-1.2986,-1.3001,-1.3015,-1.3046,-1.3047,-1.308,-1.309,-1.3121,-1.3143,-1.3135,-1.3185,-1.3189,-1.3192,-1.317,-1.3169,-1.3169,-1.3163,-1.3153,0,0,0,0,0,-1.2807,-1.2835,-1.288,-1.2907,-1.2922,-1.2958,-1.2977,-1.2996,-1.3029,-1.3042,-1.3072,-1.3103,-1.3133,-1.3152,-1.3183,-1.3214,-1.3224,-1.3225,-1.3224,-1.3224,-1.3226,-1.3243,-1.3243,-1.3235,-1.3235,-1.3235,0,0,-1.2804,-1.2836,-1.2852,-1.2903,-1.2929,-1.2957,-1.2969,-1.2999,-1.3019,-1.3046,-1.3081,-1.3103,-1.314,-1.3173,-1.3189,-1.3192,-1.323,-1.3225,-1.3224,-1.3226,-1.3243,-1.3244,-1.3245,-1.3235,-1.3235,-1.3235,0,0,-1.2812,-1.284,-1.2865,-1.2891,-1.293,-1.2954,-1.2959,-1.3003,-1.3019,-1.3054,-1.3074,-1.3099,-1.315,-1.3175,-1.3195,-1.321,-1.3224,-1.3219,-1.3216,-1.3232,-1.3233,-1.3233,-1.3238,-1.324,-1.3221,-1.3221,-1.322,0,-1.2804,-1.2847,-1.2876,-1.2904,-1.2925,-1.295,-1.2975,-1.2998,-1.3045,-1.3059,-1.3061,-1.3125,-1.3152,-1.319,-1.3194,-1.3209,-1.3216,-1.3214,-1.323,-1.3231,-1.3232,-1.3237,-1.3239,-1.322,-1.322,-1.322,-1.322,0,-1.2834,-1.2863,-1.2879,-1.2923,-1.2945,-1.2972,-1.3004,-1.3023,-1.3039,-1.3062,-1.3096,-1.3128,-1.3165,-1.3175,-1.3192,-1.3215,-1.3216,-1.3224,-1.3229,-1.3232,-1.3237,-1.3239,-1.3218,-1.3219,-1.3219,-1.3219,0,0,-1.283,-1.2888,-1.2893,-1.2913,-1.2957,-1.298,-1.3006,-1.3042,-1.3057,-1.3088,-1.311,-1.3152,-1.3159,-1.3181,-1.32,-1.3214,-1.3223,-1.3221,-1.3222,-1.322,-1.325,-1.3244,-1.3246,-1.3232,-1.3233,-1.3233,-1.3247,0,-1.2844,-1.2893,-1.2919,-1.2957,-1.2984,-1.3007,-1.303,-1.3058,-1.308,-1.3105,-1.3129,-1.3158,-1.3165,-1.3178,-1.3193,-1.3219,-1.323,-1.3218,-1.3253,-1.3254,-1.3244,-1.3248,-1.3242,-1.3253,-1.3249,-1.3249,-1.325,0,-1.2868,-1.2898,-1.2938,-1.2977,-1.2989,-1.301,-1.3043,-1.3067,-1.31,-1.3114,-1.3138,-1.3156,-1.3184,-1.3186,-1.3223,-1.3215,-1.323,-1.3245,-1.3246,-1.3251,-1.3252,-1.3253,-1.3258,-1.3259,-1.3253,-1.3253,-1.3253,0,-1.286,-1.291,-1.294,-1.2957,-1.3003,-1.3017,-1.3037,-1.3069,-1.3088,-1.3117,-1.313,-1.3161,-1.3179,-1.3203,-1.3229,-1.3228,-1.3263,-1.3268,-1.3276,-1.3275,-1.3283,-1.3282,-1.329,-1.3292,-1.3292,-1.3292,-1.3292,0,-1.2873,-1.2897,-1.2937,-1.2956,-1.2982,-1.3011,-1.3037,-1.3058,-1.3086,-1.3109,-1.313,-1.3151,-1.3184,-1.3208,-1.3229,-1.3256,-1.3264,-1.3276,-1.3281,-1.3274,-1.3272,-1.3285,-1.3285,-1.3293,-1.3293,-1.3292,-1.3292,0,-1.2869,-1.2897,-1.2932,-1.2973,-1.2983,-1.3001,-1.3036,-1.3054,-1.3076,-1.3104,-1.3112,-1.3146,-1.3176,-1.3204,-1.3243,-1.3257,-1.3284,-1.3291,-1.3274,-1.3276,-1.3283,-1.3281,-1.3299,-1.3303,-1.3302,-1.3302,-1.3302,0,-1.2876,-1.2894,-1.2937,-1.2953,-1.2973,-1.3,-1.3019,-1.3047,-1.3066,-1.3103,-1.3117,-1.3148,-1.3174,-1.322,-1.3248,-1.3278,-1.3286,-1.329,-1.329,-1.3282,-1.3285,-1.3284,-1.3286,-1.3289,-1.3289,-1.3289,-1.3289,0,-1.2884,-1.2897,-1.2924,-1.2956,-1.2978,-1.3005,-1.3031,-1.3044,-1.3077,-1.3097,-1.3127,-1.3147,-1.3187,-1.3217,-1.325,-1.327,-1.3285,-1.3288,-1.3292,-1.3285,-1.3274,-1.3279,-1.3272,-1.3288,-1.3288,-1.3288,-1.3288,-1.3288,-1.2886,-1.2903,-1.2935,-1.2964,-1.2987,-1.3011,-1.303,-1.3054,-1.308,-1.3115,-1.3129,-1.316,-1.319,-1.3235,-1.3255,-1.3278,-1.3282,-1.3287,-1.3288,-1.3289,-1.3287,-1.3269,-1.3284,-1.3284,-1.3285,-1.3285,-1.3285,0,-1.2895,-1.2917,-1.2943,-1.298,-1.3002,-1.3014,-1.3044,-1.3061,-1.3088,-1.3115,-1.314,-1.3174,-1.3203,-1.3233,-1.3263,-1.3276,-1.3283,-1.3283,-1.3282,-1.3286,-1.3283,-1.3277,-1.3276,-1.3276,-1.3276,-1.3276,-1.3276,-1.3276,-1.2903,-1.2932,-1.2948,-1.2988,-1.3009,-1.3039,-1.3055,-1.3077,-1.3099,-1.3136,-1.316,-1.3179,-1.3207,-1.3239,-1.3265,-1.3273,-1.3283,-1.3281,-1.329,-1.3286,-1.3287,-1.3287,-1.3282,-1.3283,-1.3283,-1.3293,-1.3293,-1.3293]}]]